This demonstration page uses our WeatherBlox Daily Observations layout. Learn more.

Hourly Observations for July 15, 2018

Temp ( °F °C ) Dew Point ( °F °C ) Humidity (%) Winds ( mph kmh ) Pressure ( in mb ) Visibility ( mi km ) Precip ( " mm )
12:15 am 00:15 Clear 69 20.7 69 20.3 98 98 E 6 9 29.97 1015 10 16.0934 0 0
12:35 am 00:35 Clear 69 20.5 68 20 97 97 ESE 6 9 29.97 1015 10 16.0934 0 0
12:55 am 00:55 Clear 68 20.1 68 19.8 98 98 ESE 5 7 29.97 1015 10 16.0934 0 0
1:15 am 01:15 Clear 68 20 67 19.6 98 98 Calm 30 1016 10 16.0934 0 0
1:35 am 01:35 Clear 67 19.7 67 19.5 99 99 Calm 30 1016 10 16.0934 0 0
1:55 am 01:55 Clear 67 19.5 67 19.5 100 100 Calm 30 1016 7 11.26538 0 0
2:15 am 02:15 Clear 67 19.7 67 19.7 100 100 Calm 30 1016 10 16.0934 0 0
2:35 am 02:35 Mostly Cloudy 68 19.8 68 19.8 100 100 SE 3 6 30 1016 10 16.0934 0 0
2:55 am 02:55 Cloudy 69 20.6 69 20.3 98 98 SE 3 6 29.97 1015 10 16.0934 0 0
3:15 am 03:15 Cloudy 69 20.8 69 20.5 98 98 SE 5 7 29.97 1015 10 16.0934 0 0
3:35 am 03:35 Mostly Cloudy 69 20.4 68 20 98 98 SE 5 7 29.97 1015 10 16.0934 0 0
3:55 am 03:55 Partly Cloudy 68 20 67 19.7 98 98 SE 6 9 29.94 1014 7 11.26538 0 0
4:15 am 04:15 Partly Cloudy 68 19.8 67 19.7 99 99 SE 5 7 29.94 1014 7 11.26538 0 0
4:35 am 04:35 Clear 67 19.5 67 19.3 99 99 Calm 29.97 1015 7 11.26538 0 0
4:55 am 04:55 Clear with Mist and Fog 67 19.3 67 19.3 100 100 Calm 29.97 1015 5 8.0467 0 0
5:15 am 05:15 Clear with Mist and Fog 67 19.5 67 19.5 100 100 Calm 30 1016 5 8.0467 0 0
5:35 am 05:35 Clear 67 19.2 67 19.2 100 100 Calm 29.97 1015 7 11.26538 0 0
5:55 am 05:55 Clear with Mist and Fog 66 18.7 66 18.7 100 100 Calm 29.97 1015 5 8.0467 0 0
6:15 am 06:15 Clear with Mist and Fog 65 18.6 65 18.6 100 100 Calm 30 1016 3 4.82802 0 0
6:35 am 06:35 Sunny with Mist and Fog 65 18.2 65 18.2 100 100 Calm 30 1016 2.5 4.02335 0 0
6:55 am 06:55 Sunny with Mist and Fog 64 18 64 18 100 100 Calm 30 1016 2 3.21868 0 0
7:15 am 07:15 Partly Cloudy with Mist and Fog 66 18.8 66 18.8 100 100 Calm 30 1016 3 4.82802 0 0
7:35 am 07:35 Partly Cloudy with Mist and Fog 68 19.8 68 19.8 100 100 Calm 30.03 1017 4 6.43736 0 0
7:55 am 07:55 Partly Cloudy with Mist and Fog 70 21 70 21 100 100 Calm 30 1016 5 8.0467 0 0
8:15 am 08:15 Partly Cloudy with Mist and Fog 71 21.9 71 21.4 97 97 Calm 30 1016 5 8.0467 0 0
8:35 am 08:35 Sunny with Mist and Fog 73 22.5 71 21.9 96 96 Calm 30 1016 5 8.0467 0 0
8:55 am 08:55 Partly Cloudy with Mist and Fog 73 22.7 72 22 96 96 Calm 30 1016 5 8.0467 0 0
9:15 am 09:15 Sunny 74 23.4 72 22.2 93 93 Calm 30 1016 7 11.26538 0 0
9:35 am 09:35 Sunny 76 24.2 73 22.9 92 92 NNE 3 6 29.97 1015 7 11.26538 0 0
9:55 am 09:55 Sunny 77 25.1 74 23.5 91 91 Calm 29.97 1015 10 16.0934 0 0
10:15 am 10:15 Sunny 78 25.8 74 23.4 87 87 Calm 29.97 1015 10 16.0934 0 0
10:35 am 10:35 Sunny 79 26.2 74 23.2 84 84 Calm 29.97 1015 10 16.0934 0 0
10:55 am 10:55 Sunny 81 27 74 23.5 81 81 Calm 29.97 1015 10 16.0934 0 0
11:15 am 11:15 Sunny 82 27.5 74 23.1 77 77 NE 5 7 29.97 1015 10 16.0934 0 0
11:35 am 11:35 Partly Cloudy 82 27.9 74 23.1 75 75 NNE 6 9 29.94 1014 10 16.0934 0 0
11:55 am 11:55 Partly Cloudy 83 28.1 71 21.9 69 69 NE 8 13 29.94 1014 10 16.0934 0 0
12:15 pm 12:15 Partly Cloudy 83 28.5 69 20.8 63 63 ENE 8 13 29.94 1014 10 16.0934 0 0
12:35 pm 12:35 Sunny 84 28.7 69 20.8 62 62 ENE 7 11 29.94 1014 10 16.0934 0 0
12:55 pm 12:55 Sunny 84 29 70 20.9 62 62 E 7 11 29.94 1014 10 16.0934 0 0
1:15 pm 13:15 Sunny 85 29.4 65 18.6 52 52 E 6 9 29.94 1014 10 16.0934 0 0
1:35 pm 13:35 Sunny 85 29.5 67 19.2 54 54 NE 9 15 29.94 1014 10 16.0934 0 0
1:55 pm 13:55 Sunny 85 29.4 67 19.6 56 56 NE 9 15 29.91 1013 10 16.0934 0 0
2:15 pm 14:15 Sunny 85 29.5 69 20.5 58 58 NE 7 11 29.91 1013 10 16.0934 0 0
2:35 pm 14:35 Partly Cloudy 84 29 68 20.2 59 59 NE 9 15 29.91 1013 10 16.0934 0 0
2:55 pm 14:55 Partly Cloudy 85 29.3 71 21.4 62 62 NNE 6 9 29.91 1013 10 16.0934 0 0
3:15 pm 15:15 Mostly Cloudy 82 28 73 22.9 74 74 N 10 17 29.91 1013 10 16.0934 0 0
3:35 pm 15:35 Mostly Cloudy 82 28 74 23.2 75 75 N 13 20 29.91 1013 10 16.0934 0 0
3:55 pm 15:55 Partly Cloudy 83 28.2 73 22.7 72 72 N 8 13 29.91 1013 10 16.0934 0 0
4:15 pm 16:15 Sunny 81 27.3 72 22.2 74 74 N 9 15 29.94 1014 10 16.0934 0 0
4:35 pm 16:35 Partly Cloudy 82 27.6 73 22.5 74 74 NNE 7 11 29.91 1013 10 16.0934 0 0
4:55 pm 16:55 Partly Cloudy 84 29 72 22.3 67 67 NNE 10 17 29.91 1013 10 16.0934 0 0
5:15 pm 17:15 Partly Cloudy 84 29.1 73 22.8 69 69 N 9 15 29.91 1013 10 16.0934 0 0
5:35 pm 17:35 Partly Cloudy 84 28.7 72 22.3 68 68 NNE 9 15 29.91 1013 10 16.0934 0 0
5:55 pm 17:55 Partly Cloudy 84 28.7 73 22.6 70 70 N 13 20 29.91 1013 10 16.0934 0 0
6:15 pm 18:15 Partly Cloudy 83 28.1 73 22.8 73 73 NNE 10 17 29.91 1013 10 16.0934 0 0
6:35 pm 18:35 Sunny 82 27.8 72 22.4 72 72 N 8 13 29.91 1013 10 16.0934 0 0
6:55 pm 18:55 Sunny 82 27.6 72 22.2 72 72 NNE 12 19 29.88 1012 10 16.0934 0 0
7:15 pm 19:15 Sunny 82 27.5 71 21.9 72 72 NNE 9 15 29.88 1012 10 16.0934 0 0
7:35 pm 19:35 Sunny 81 27.1 72 22.2 75 75 NNE 8 13 29.94 1014 10 16.0934 0 0
7:55 pm 19:55 Sunny 80 26.8 72 22.2 76 76 NNE 7 11 29.94 1014 10 16.0934 0 0
8:15 pm 20:15 Partly Cloudy 79 26.2 72 22.4 80 80 NNE 6 9 29.94 1014 10 16.0934 0 0
8:35 pm 20:35 Partly Cloudy 78 25.5 73 22.5 84 84 NNE 5 7 29.94 1014 10 16.0934 0 0
8:55 pm 20:55 Partly Cloudy 77 25.1 73 22.7 87 87 NE 3 6 29.94 1014 10 16.0934 0 0
9:15 pm 21:15 Partly Cloudy 76 24.3 73 22.5 90 90 N 8 13 29.97 1015 10 16.0934 0 0
9:35 pm 21:35 Clear 74 23.6 72 22.4 93 93 N 7 11 30 1016 10 16.0934 0 0
9:55 pm 21:55 Clear 74 23.3 72 22.3 94 94 N 7 11 30 1016 10 16.0934 0 0
10:15 pm 22:15 Partly Cloudy 74 23.4 72 22.1 92 92 N 9 15 30.03 1017 10 16.0934 0 0
10:35 pm 22:35 Partly Cloudy 74 23.1 71 21.5 91 91 NNE 13 20 30.03 1017 10 16.0934 0 0
10:55 pm 22:55 Clear 73 22.8 70 21.1 90 90 NNE 10 17 30.03 1017 10 16.0934 0 0
11:15 pm 23:15 Clear 72 22.2 69 20.7 91 91 NNE 9 15 30.03 1017 10 16.0934 0 0
11:35 pm 23:35 Clear 71 21.7 69 20.4 92 92 NNE 9 15 30.03 1017 10 16.0934 0 0
11:55 pm 23:55 Clear 70 21.2 68 20.2 94 94 NNE 7 11 30.03 1017 10 16.0934 0 0

Powered by AerisWeather